COBE

operational
NORAD ID: 20322 Int'l Des: 1989-089 Owner: GSFC Country: US
LEOCIRCULARRETROGRADESSO

关于 COBE

正在加载描述...

实时位置

正在加载3D地球...

即将过境

高度历史

Altitude vs Time

uPlot chart will show altitude changes over time

两行轨道根数

1 20322U 89089A 26061.64141754 -.00000093 00000-0 -30730-4 0 9991
2 20322 98.8969 65.6948 0008976 25.4110 83.6469 14.05442472859697
Epoch: Mar 2, 2026 • Age: 25 hours

当前状态

高度 905.4 km
速度 7.40 km/s
星下点 -69.36°S, 51.67°E
发射日期 Nov 18, 1989
运行时间 36.2 years
类型 other

技术详情

分类 Payload
质量 2206.00 kg
干质量 2206.00 kg
总质量 2206.00 kg
长度 4.90 m
直径 2.20 m
跨度 8.40 m
形状 Hex Cyl + 2 Pan
制造商 GSFC
平台类型 COBE
阶段状态 In Orbit
所有者/国家 GSFC/US

大型星座

Loading constellations...